< < Back
Terminal Aerodrome Forecast


Current Version              Previous Versions:   1  2  3  4  5  6  7  8  9  

Terminal Aerodrome Forecast

000
FTUS42 KGSP 062323
TAFHKY
TAF
KHKY 062323Z 0700/0724 01004KT P6SM BKN150
     FM070600 36007KT P6SM BKN120
     FM071300 01008G16KT P6SM FEW150
     FM072100 33007KT P6SM FEW250=

Latest METAR

458
SAUS70 KWBC 070400 RRD
MTRHKY
METAR KHKY 070353Z AUTO 00000KT 10SM SCT110 02/M07 A3023 RMK AO2 SLP233
T00171067


USA.gov is the U.S. government's official web portal to all federal, state and local government web resources and services.